Regional Weather Roundup
Issued by NWS

Home | Current Version | Previous Version | Graphics & Text | Print | Product List | Glossary On
Versions: 1 2 3 4 5 6 7 8 9 10 11 12 13 14 15 16 17 18 19 20 21 22 23 24 25 26 27 28 29 30 31 32 33 34 35 36 37 38 39 40 41 42 43 44 45 46 47 48 49 50
000
ASUS44 KMEG 101000
RWRTN
TENNESSEE HOURLY STATE WEATHER ROUNDUP
NATIONAL WEATHER SERVICE MEMPHIS TN
500 AM CDT THU JUL 10 2014

TNZ002-004-019-021-049-052-054-088>092-101100-
WEST TENNESSEE

CITY           SKY/WX    TMP DP  RH WIND       PRES   REMARKS
MEMPHIS INTL   PTCLDY    72  68  87 CALM      30.03F
NWS MEMPHIS      N/A     68 N/A N/A MISG        N/A
JACKSON        FOG       66  64  93 CALM      30.05R VSB 1/2
DYERSBURG        N/A     66  57  72 CALM      30.05R VSB 3/4
UNION CITY     CLEAR     64  64 100 CALM      30.03R
LEXINGTON      CLOUDY    63  63 100 CALM      30.04S VSB 3/4
$$

TNZ008-025-027-028-033-062-065-066-101100-
NORTH MIDDLE TENNESSEE

CITY           SKY/WX    TMP DP  RH WIND       PRES   REMARKS
NASHVILLE      PTCLDY    69  64  84 CALM      30.05R
CLARKSVILLE    CLEAR     62  60  93 CALM      30.05R
COOKEVILLE     CLOUDY    68  68 100 CALM      30.07R VSB 0
CROSSVILLE     FOG       70  66  87 CALM      30.10S VSB 1/4
$$

TNZ061-075-076-078-094-096-097-101100-
SOUTH MIDDLE TENNESSEE

CITY           SKY/WX    TMP DP  RH WIND       PRES   REMARKS
TULLAHOMA      CLOUDY    70  68  94 CALM      30.07S
WINCHESTER     CLOUDY    70  68  94 CALM      30.06S
MCMINNVILLE    CLOUDY    70  70 100 CALM      30.08R VSB 1/4
COLUMBIA       MOCLDY    70  70 100 CALM      30.04S
$$

TNZ017-018-042-046-047-101100-
NORTHEAST TENNESSEE

CITY           SKY/WX    TMP DP  RH WIND       PRES   REMARKS
TRI CITIES     CLOUDY    68  64  87 CALM      30.09R
ELIZABETHTON   PTSUNNY   64  63  94 CALM      30.09R
$$

TNZ012-013-036-069-073-074-101100-
CENTRAL EAST TENNESSEE

CITY           SKY/WX    TMP DP  RH WIND       PRES   REMARKS
KNOXVILLE      MOCLDY    68  67  96 CALM      30.06R
OAK RIDGE      CLOUDY    69  68  96 CALM      30.07R FOG
$$

TNZ083-085-099-101100-
SOUTHEAST TENNESSEE

CITY           SKY/WX    TMP DP  RH WIND       PRES   REMARKS
CHATTANOOGA    MOCLDY    71  68  90 CALM      30.06R
$$

SKY/WX REPORTED AS FAIR MEANS FEW OR NO CLOUDS BELOW
12 THOUSAND FEET.



USA.gov is the U.S. government's official web portal to all federal, state and local government web resources and services.